PRJAM SBSJ-SBGW

Flight info

Callsign PRJAM
Flight time 0h 32m
Altitude 3500
Route DCT 2152S41235W DCT
Aircraft AS50/L-V/N

Departure

Time 2026-04-28 22:11
Airport Professor Urbano Ernesto Stumpf Airport (SBSJ)

Arrival

Time 2026-04-28 22:43
Airport Edu Chaves Field (SBGW)
Time Latitude Longitude Altitude Speed Heading
2026-04-28 22:11 -23.24593 -45.93887 3706 ft 166 kts 49°
2026-04-28 22:11 -23.24018 -45.93183 3757 ft 166 kts 46°
2026-04-28 22:11 -23.23237 -45.92250 3758 ft 166 kts 47°
2026-04-28 22:11 -23.22483 -45.91290 3758 ft 167 kts 49°
2026-04-28 22:12 -23.21761 -45.90286 3762 ft 166 kts 52°
2026-04-28 22:12 -23.21091 -45.89265 3756 ft 165 kts 54°
2026-04-28 22:12 -23.20454 -45.88201 3630 ft 155 kts 59°
2026-04-28 22:12 -23.19987 -45.87315 3658 ft 132 kts 60°
2026-04-28 22:13 -23.19597 -45.86546 3691 ft 123 kts 61°
2026-04-28 22:13 -23.19274 -45.85907 3695 ft 120 kts 61°
2026-04-28 22:13 -23.18843 -45.85064 3699 ft 118 kts 60°
2026-04-28 22:13 -23.18340 -45.84090 3699 ft 118 kts 60°
2026-04-28 22:14 -23.17932 -45.83306 3700 ft 117 kts 60°
2026-04-28 22:14 -23.17614 -45.82697 3699 ft 116 kts 60°
2026-04-28 22:14 -23.17206 -45.81922 3696 ft 116 kts 60°
2026-04-28 22:14 -23.16806 -45.81162 3698 ft 116 kts 60°
2026-04-28 22:15 -23.16405 -45.80403 3699 ft 117 kts 60°
2026-04-28 22:15 -23.15998 -45.79634 3704 ft 117 kts 60°
2026-04-28 22:15 -23.15571 -45.78829 3705 ft 117 kts 60°
2026-04-28 22:15 -23.15107 -45.77954 3698 ft 117 kts 60°
2026-04-28 22:16 -23.14682 -45.77154 3697 ft 117 kts 59°
2026-04-28 22:16 -23.14385 -45.76590 3697 ft 116 kts 59°
2026-04-28 22:16 -23.13938 -45.75734 3717 ft 114 kts 59°
2026-04-28 22:16 -23.13542 -45.74969 3697 ft 115 kts 60°
2026-04-28 22:17 -23.13145 -45.74202 3696 ft 115 kts 60°
2026-04-28 22:17 -23.12741 -45.73427 3696 ft 115 kts 60°
2026-04-28 22:17 -23.12345 -45.72672 3702 ft 115 kts 59°
2026-04-28 22:17 -23.11951 -45.71918 3699 ft 116 kts 60°
2026-04-28 22:18 -23.11665 -45.71371 3700 ft 116 kts 60°
2026-04-28 22:18 -23.11209 -45.70500 3700 ft 116 kts 60°
2026-04-28 22:18 -23.10749 -45.69623 3696 ft 116 kts 59°
2026-04-28 22:18 -23.10432 -45.69016 3700 ft 116 kts 60°
2026-04-28 22:19 -23.10012 -45.68212 3702 ft 116 kts 60°
2026-04-28 22:19 -23.09599 -45.67418 3699 ft 116 kts 59°
2026-04-28 22:19 -23.09191 -45.66628 3701 ft 115 kts 60°
2026-04-28 22:19 -23.08823 -45.65918 3705 ft 115 kts 59°
2026-04-28 22:20 -23.08430 -45.65164 3701 ft 115 kts 60°
2026-04-28 22:20 -23.08033 -45.64408 3701 ft 115 kts 59°
2026-04-28 22:20 -23.07639 -45.63657 3706 ft 115 kts 60°
2026-04-28 22:20 -23.07236 -45.62891 3705 ft 115 kts 59°
2026-04-28 22:21 -23.06838 -45.62131 3702 ft 116 kts 60°
2026-04-28 22:21 -23.06440 -45.61373 3702 ft 115 kts 60°
2026-04-28 22:21 -23.06044 -45.60619 3701 ft 116 kts 60°
2026-04-28 22:21 -23.05645 -45.59860 3707 ft 116 kts 59°
2026-04-28 22:22 -23.05379 -45.59355 3700 ft 116 kts 59°
2026-04-28 22:22 -23.04971 -45.58577 3702 ft 115 kts 60°
2026-04-28 22:22 -23.04578 -45.57828 3707 ft 115 kts 60°
2026-04-28 22:22 -23.04168 -45.57042 3704 ft 115 kts 59°
2026-04-28 22:23 -23.03772 -45.56283 3703 ft 116 kts 60°
2026-04-28 22:23 -23.03376 -45.55526 3704 ft 115 kts 60°
2026-04-28 22:23 -23.02982 -45.54769 3705 ft 116 kts 59°
2026-04-28 22:23 -23.02579 -45.53989 3703 ft 116 kts 59°
2026-04-28 22:24 -23.02162 -45.53184 3708 ft 116 kts 59°
2026-04-28 22:24 -23.01761 -45.52414 3704 ft 116 kts 59°
2026-04-28 22:24 -23.01362 -45.51651 3701 ft 115 kts 59°
2026-04-28 22:24 -23.00969 -45.50893 3703 ft 115 kts 59°
2026-04-28 22:25 -23.00555 -45.50096 3702 ft 115 kts 59°
2026-04-28 22:25 -23.00167 -45.49347 3704 ft 115 kts 60°
2026-04-28 22:25 -22.99773 -45.48591 3705 ft 115 kts 60°
2026-04-28 22:25 -22.99372 -45.47828 3705 ft 116 kts 59°
2026-04-28 22:26 -22.99048 -45.47208 3705 ft 117 kts 60°
2026-04-28 22:26 -22.98640 -45.46429 3705 ft 117 kts 59°
2026-04-28 22:26 -22.98214 -45.45614 3702 ft 117 kts 60°
2026-04-28 22:26 -22.97813 -45.44847 3708 ft 117 kts 59°
2026-04-28 22:27 -22.97405 -45.44067 3706 ft 117 kts 59°
2026-04-28 22:27 -22.96984 -45.43264 3705 ft 116 kts 59°
2026-04-28 22:27 -22.96586 -45.42503 3702 ft 116 kts 59°
2026-04-28 22:27 -22.96186 -45.41732 3701 ft 116 kts 60°
2026-04-28 22:28 -22.95789 -45.40967 3701 ft 116 kts 59°
2026-04-28 22:28 -22.95392 -45.40207 3701 ft 116 kts 60°
2026-04-28 22:28 -22.94992 -45.39447 3702 ft 116 kts 60°
2026-04-28 22:28 -22.94594 -45.38688 3700 ft 116 kts 60°
2026-04-28 22:29 -22.94192 -45.37921 3711 ft 117 kts 59°
2026-04-28 22:29 -22.93799 -45.37153 3707 ft 116 kts 60°
2026-04-28 22:29 -22.93404 -45.36388 3707 ft 116 kts 59°
2026-04-28 22:29 -22.93005 -45.35618 3707 ft 117 kts 60°
2026-04-28 22:30 -22.92605 -45.34853 3726 ft 116 kts 59°
2026-04-28 22:30 -22.92198 -45.34097 3718 ft 116 kts 56°
2026-04-28 22:30 -22.91676 -45.33416 3719 ft 116 kts 42°
2026-04-28 22:30 -22.91250 -45.33029 3719 ft 116 kts 38°
2026-04-28 22:31 -22.90589 -45.32495 3722 ft 116 kts 36°
2026-04-28 22:31 -22.89847 -45.31913 3743 ft 116 kts 36°
2026-04-28 22:31 -22.89153 -45.31316 3718 ft 118 kts 43°
2026-04-28 22:31 -22.88609 -45.30609 3720 ft 117 kts 54°
2026-04-28 22:32 -22.88281 -45.30043 3738 ft 116 kts 58°
2026-04-28 22:32 -22.87838 -45.29195 3722 ft 116 kts 60°
2026-04-28 22:32 -22.87469 -45.28475 3725 ft 116 kts 60°
2026-04-28 22:32 -22.87073 -45.27706 3727 ft 115 kts 59°
2026-04-28 22:33 -22.86682 -45.26953 3730 ft 114 kts 59°
2026-04-28 22:33 -22.86279 -45.26186 3731 ft 114 kts 59°
2026-04-28 22:33 -22.85885 -45.25438 3731 ft 114 kts 59°
2026-04-28 22:33 -22.85480 -45.24678 3745 ft 115 kts 59°
2026-04-28 22:34 -22.85057 -45.23894 3731 ft 117 kts 58°
2026-04-28 22:34 -22.84811 -45.23440 3730 ft 117 kts 59°
2026-04-28 22:34 -22.84302 -45.22698 3730 ft 116 kts 43°
2026-04-28 22:34 -22.83662 -45.22169 3723 ft 115 kts 33°
2026-04-28 22:35 -22.82982 -45.21716 3721 ft 115 kts 35°
2026-04-28 22:35 -22.82352 -45.21155 3734 ft 113 kts 44°
2026-04-28 22:35 -22.81755 -45.20487 3728 ft 114 kts 48°
2026-04-28 22:35 -22.81543 -45.20237 3770 ft 114 kts 48°
2026-04-28 22:36 -22.81186 -45.19810 3653 ft 119 kts 49°
2026-04-28 22:36 -22.80506 -45.18991 3675 ft 112 kts 49°
2026-04-28 22:36 -22.79986 -45.18361 3691 ft 110 kts 49°
2026-04-28 22:36 -22.79471 -45.17733 3697 ft 110 kts 49°
2026-04-28 22:37 -22.78969 -45.17125 3698 ft 110 kts 49°
2026-04-28 22:37 -22.78426 -45.16471 3700 ft 112 kts 48°
2026-04-28 22:37 -22.77898 -45.15838 3701 ft 112 kts 48°
2026-04-28 22:37 -22.77377 -45.15214 3702 ft 110 kts 48°
2026-04-28 22:38 -22.76993 -45.14754 3705 ft 110 kts 48°
2026-04-28 22:38 -22.76390 -45.14025 3711 ft 111 kts 49°
2026-04-28 22:38 -22.75822 -45.13336 3703 ft 111 kts 49°
2026-04-28 22:38 -22.75310 -45.12717 3705 ft 111 kts 49°
2026-04-28 22:39 -22.74789 -45.12092 3710 ft 112 kts 46°
2026-04-28 22:39 -22.74146 -45.11612 3704 ft 113 kts 26°
2026-04-28 22:39 -22.73397 -45.11321 3702 ft 115 kts 14°
2026-04-28 22:39 -22.72595 -45.11378 3702 ft 116 kts 340°
2026-04-28 22:40 -22.72023 -45.11981 3703 ft 118 kts 298°
2026-04-28 22:40 -22.71876 -45.12857 3703 ft 121 kts 268°
2026-04-28 22:40 -22.72090 -45.13737 3704 ft 122 kts 249°
2026-04-28 22:40 -22.72476 -45.14573 3710 ft 123 kts 238°
2026-04-28 22:41 -22.73032 -45.15306 3702 ft 123 kts 226°
2026-04-28 22:41 -22.73621 -45.15956 3704 ft 122 kts 225°
2026-04-28 22:41 -22.74028 -45.16409 3706 ft 122 kts 226°
2026-04-28 22:41 -22.74692 -45.17188 3701 ft 123 kts 228°
2026-04-28 22:42 -22.75154 -45.17764 3702 ft 122 kts 229°
2026-04-28 22:42 -22.75775 -45.18562 3698 ft 121 kts 228°
2026-04-28 22:42 -22.76238 -45.19101 3693 ft 123 kts 226°
2026-04-28 22:42 -22.76964 -45.19782 2714 ft 160 kts 211°
2026-04-28 22:43 -22.78009 -45.20315 2102 ft 160 kts 196°
2026-04-28 22:43 -22.78794 -45.20488 1885 ft 148 kts 188°
2026-04-28 22:43 -22.79633 -45.20587 1746 ft 23 kts 347°
2026-04-28 22:43 -22.79641 -45.20596 1748 ft 0 kts 324°